FW2595 Weather Reports


Display with metric or nautical units.
time (UTC)temp
F
wind
direction
speed
MPH
gust
MPH
rain 1hr
in
rain 24hr
in
rain mn
in
humidity
%
barometer
mb
20260507024537 62 248 0.0 2.0 0.00 0.00 0.00 82 1016.8
20260507023138 62 294 1.0 7.0 0.00 0.00 0.00 82 1016.6
20260507021540 63 248 0.0 6.0 0.00 0.00 0.00 81 1016.5
20260507020036 63 326 1.0 7.0 0.00 0.00 0.00 80 1016.6
20260507014534 64 234 2.0 7.0 0.00 0.00 0.00 77 1016.7
20260507013033 68 286 1.0 8.0 0.00 0.00 0.00 75 1016.7
20260507011538 67 321 1.0 8.0 0.00 0.00 0.00 76 1016.7
20260507010048 67 153 1.0 9.0 0.00 0.00 0.00 74 1016.7
20260507004535 68 275 2.0 7.0 0.00 0.00 0.00 74 1016.8
20260507003032 68 270 2.0 9.0 0.00 0.00 0.00 74 1016.7
20260507001530 68 286 3.0 10.0 0.00 0.00 0.00 74 1016.6
20260507000029 68 224 3.0 12.0 0.00 0.00 0.00 73 1016.7
20260506234531 69 282 1.0 6.0 0.00 0.00 0.00 72 1016.8
20260506233027 70 282 1.0 9.0 0.00 0.00 0.00 71 1016.9
20260506231525 69 250 2.0 9.0 0.00 0.00 0.00 71 1016.9
20260506230027 70 200 1.0 10.0 0.00 0.00 0.00 71 1017.1
20260506224522 69 296 2.0 10.0 0.00 0.00 0.00 72 1017.3
20260506223021 69 243 4.0 10.0 0.00 0.00 0.00 71 1017.5
20260506221520 69 258 4.0 12.0 0.00 0.00 0.00 71 1017.7
20260506220025 69 155 3.0 12.0 0.00 0.00 0.00 70 1017.7
20260506214517 70 257 2.0 15.0 0.00 0.00 0.00 69 1018.1
20260506213016 71 331 2.0 8.0 0.00 0.00 0.00 68 1018.2
20260506211514 71 229 3.0 9.0 0.00 0.00 0.00 69 1018.3
20260506210014 71 312 2.0 10.0 0.00 0.00 0.00 67 1018.3
20260506204512 71 150 2.0 8.0 0.00 0.00 0.00 68 1018.3
20260506203012 71 254 1.0 10.0 0.00 0.00 0.00 70 1018.7
20260506201525 70 238 2.0 10.0 0.00 0.00 0.00 68 1018.9
20260506200006 69 209 2.0 10.0 0.00 0.00 0.00 69 1019.0
20260506194506 69 180 2.0 8.0 0.00 0.00 0.00 69 1019.2
20260506193116 68 275 0.0 9.0 0.00 0.00 0.00 70 1019.3
20260506191613 67 238 3.0 10.0 0.00 0.00 0.00 71 1019.4
20260506190055 66 248 3.0 10.0 0.00 0.00 0.00 71 1019.3
20260506184605 66 234 3.0 10.0 0.00 0.00 0.00 72 1019.5
20260506183048 65 229 3.0 8.0 0.00 0.00 0.00 73 1019.6
20260506181546 65 225 2.0 8.0 0.00 0.00 0.00 75 1019.7
20260506180043 64 243 3.0 8.0 0.00 0.00 0.00 77 1019.7
20260506174541 63 223 2.0 6.0 0.00 0.00 0.00 77 1019.6
20260506173046 63 219 2.0 7.0 0.00 0.00 0.00 78 1019.7
20260506171554 63 256 1.0 5.0 0.00 0.00 0.00 77 1019.7
20260506170043 62 246 1.0 5.0 0.00 0.00 0.00 78 1019.7
20260506164539 63 200 2.0 5.0 0.00 0.00 0.00 77 1019.6
20260506163037 62 209 0.0 5.0 0.00 0.00 0.00 79 1019.8
20260506161536 61 211 0.0 3.0 0.00 0.00 0.00 79 1019.8
20260506160032 61 248 1.0 4.0 0.00 0.00 0.00 81 1019.9
20260506154530 60 179 1.0 4.0 0.00 0.00 0.00 83 1019.9
20260506153028 60 218 0.0 2.0 0.00 0.00 0.00 84 1019.8
20260506151527 59 161 0.0 2.0 0.00 0.00 0.00 85 1019.8
20260506150027 59 144 0.0 0.0 0.00 0.00 0.00 87 1019.8
20260506144519 58 167 0.0 0.0 0.00 0.00 0.00 90 1019.9
20260506143018 56 154 0.0 0.0 0.00 0.00 0.00 90 1019.9
20260506141514 56 355 0.0 1.0 0.00 0.00 0.00 90 1019.8
20260506140018 55 355 0.0 1.0 0.00 0.00 0.00 90 1019.6
20260506134512 55 33 0.0 3.0 0.00 0.00 0.00 91 1019.4
20260506133015 55 15 0.0 0.0 0.00 0.00 0.00 91 1019.3
20260506131510 55 339 0.0 0.0 0.00 0.00 0.00 91 1019.1
20260506130009 54 338 0.0 0.0 0.00 0.00 0.00 91 1019.2
20260506124507 54 32 0.0 0.0 0.00 0.00 0.00 92 1019.0
20260506123007 54 332 0.0 0.0 0.00 0.00 0.00 92 1019.0
20260506121603 54 332 0.0 0.0 0.00 0.00 0.00 92 1018.9
20260506120003 54 330 0.0 0.0 0.00 0.00 0.00 92 1018.7
20260506114503 55 343 0.0 0.0 0.00 0.00 0.00 92 1018.6
20260506113101 55 343 0.0 0.0 0.00 0.00 0.00 92 1018.7
20260506113001 54 342 0.0 0.0 0.00 0.00 0.00 92 1018.6
20260506111600 54 342 0.0 0.0 0.00 0.00 0.00 92 1018.6
20260506110100 54 342 0.0 0.0 0.00 0.00 0.00 92 1018.5
20260506104606 54 11 0.0 0.0 0.00 0.00 0.00 92 1018.4
20260506103100 54 11 0.0 0.0 0.00 0.00 0.00 92 1018.4
20260506101558 53 11 0.0 0.0 0.00 0.00 0.00 93 1018.5
20260506100111 53 11 0.0 0.0 0.00 0.00 0.00 92 1018.6
20260506094556 53 10 0.0 1.0 0.00 0.00 0.00 92 1018.5
20260506093058 53 349 0.0 0.0 0.00 0.00 0.00 92 1018.7
20260506091556 53 231 0.0 0.0 0.00 0.00 0.00 92 1018.5
20260506090053 53 229 0.0 0.0 0.00 0.00 0.00 92 1018.4
20260506084550 53 229 0.0 0.0 0.00 0.00 0.00 91 1018.4
20260506083050 53 229 0.0 0.0 0.00 0.00 0.00 90 1018.4
20260506081549 54 229 0.0 0.0 0.00 0.00 0.00 90 1018.4
20260506073039 56 229 0.0 0.0 0.00 0.00 0.00 89 1018.1
20260506071538 56 229 0.0 0.0 0.00 0.00 0.00 88 1018.1
20260506061532 57 229 0.0 0.0 0.00 0.00 0.00 87 1017.8
20260506044530 58 281 0.0 0.0 0.00 0.00 0.00 85 1017.2
20260506043025 58 281 0.0 0.0 0.00 0.00 0.00 85 1017.1
20260506041523 58 275 0.0 0.0 0.00 0.00 0.00 85 1017.1
20260506040020 58 275 0.0 1.0 0.00 0.00 0.00 84 1016.8
20260506034520 58 281 0.0 0.0 0.00 0.00 0.00 84 1016.6
20260506033021 58 285 0.0 2.0 0.00 0.00 0.00 84 1016.4
20260506031528 59 277 0.0 0.0 0.00 0.00 0.00 83 1016.2
20260506030041 59 295 0.0 0.0 0.00 0.00 0.00 83 1016.0